| time (UTC) | temp F | wind direction | speed MPH | gust MPH | rain 1hr in | rain 24hr in | rain mn in | humidity % | barometer mb |
| 20260505022017 | 51 | 246 | 0.0 | 0.0 | 0.00 | 0.04 | 0.04 | 77 | 1013.7 |
| 20260505021037 | 51 | 246 | 0.0 | 0.0 | 0.00 | 0.04 | 0.04 | 75 | 1013.2 |
| 20260505020057 | 51 | 246 | 0.0 | 0.0 | 0.00 | 0.04 | 0.04 | 75 | 1012.9 |
| 20260505015017 | 51 | 246 | 0.0 | 0.0 | 0.00 | 0.04 | 0.04 | 75 | 1012.9 |
| 20260505014017 | 51 | 246 | 0.0 | 0.0 | 0.00 | 0.04 | 0.04 | 77 | 1012.6 |
| 20260505013037 | 52 | 248 | 2.0 | 4.0 | 0.00 | 0.04 | 0.04 | 74 | 1012.4 |
| 20260505012016 | 52 | 293 | 1.0 | 5.0 | 0.03 | 0.04 | 0.04 | 73 | 1012.7 |
| 20260505011016 | 52 | 337 | 0.0 | 0.0 | 0.03 | 0.04 | 0.04 | 73 | 1012.6 |
| 20260505010057 | 52 | 337 | 0.0 | 0.0 | 0.04 | 0.04 | 0.04 | 72 | 1012.3 |
| 20260505005015 | 51 | 337 | 0.0 | 0.0 | 0.04 | 0.04 | 0.04 | 72 | 1011.9 |
| 20260505004017 | 51 | 338 | 5.0 | 9.0 | 0.04 | 0.04 | 0.04 | 67 | 1011.9 |
| 20260505003017 | 51 | 23 | 9.0 | 13.0 | 0.04 | 0.04 | 0.04 | 64 | 1012.3 |
| 20260505002016 | 53 | 0 | 9.0 | 19.0 | 0.01 | 0.01 | 0.01 | 58 | 1012.8 |
| 20260505001016 | 54 | 90 | 7.0 | 20.0 | 0.01 | 0.01 | 0.01 | 58 | 1013.0 |
| 20260505000017 | 57 | 0 | 6.0 | 10.0 | 0.00 | 0.00 | 0.00 | 41 | 1012.8 |
| 20260504235016 | 58 | 338 | 9.0 | 15.0 | 0.00 | 0.00 | 0.00 | 39 | 1011.7 |
| 20260504234017 | 58 | 338 | 10.0 | 15.0 | 0.00 | 0.00 | 0.00 | 39 | 1011.6 |
| 20260504233017 | 58 | 338 | 12.0 | 19.0 | 0.00 | 0.00 | 0.00 | 38 | 1011.4 |
| 20260504232016 | 58 | 338 | 13.0 | 17.0 | 0.00 | 0.00 | 0.00 | 39 | 1011.2 |
| 20260504231016 | 58 | 338 | 14.0 | 21.0 | 0.00 | 0.00 | 0.00 | 38 | 1011.7 |
| 20260504230017 | 60 | 338 | 14.0 | 25.0 | 0.00 | 0.00 | 0.00 | 35 | 1011.5 |
| 20260504225017 | 60 | 0 | 13.0 | 22.0 | 0.00 | 0.00 | 0.00 | 33 | 1011.2 |
| 20260504224036 | 59 | 338 | 16.0 | 24.0 | 0.00 | 0.00 | 0.00 | 35 | 1011.3 |
| 20260504223017 | 60 | 338 | 18.0 | 27.0 | 0.00 | 0.00 | 0.00 | 35 | 1010.7 |
| 20260504222036 | 60 | 338 | 18.0 | 33.0 | 0.00 | 0.00 | 0.00 | 33 | 1010.9 |
| 20260504221017 | 60 | 0 | 18.0 | 25.0 | 0.00 | 0.00 | 0.00 | 31 | 1010.8 |
| 20260504220016 | 61 | 0 | 17.0 | 30.0 | 0.00 | 0.00 | 0.00 | 29 | 1010.7 |
| 20260504215057 | 66 | 45 | 3.0 | 9.0 | 0.00 | 0.00 | 0.00 | 22 | 1011.0 |
| 20260504214057 | 66 | 90 | 3.0 | 9.0 | 0.00 | 0.00 | 0.00 | 22 | 1011.1 |
| 20260504213016 | 66 | 0 | 3.0 | 12.0 | 0.00 | 0.00 | 0.00 | 22 | 1011.0 |
| 20260504212016 | 66 | 0 | 2.0 | 8.0 | 0.00 | 0.00 | 0.00 | 22 | 1010.8 |
| 20260504211017 | 66 | 68 | 8.0 | 12.0 | 0.00 | 0.00 | 0.00 | 22 | 1011.3 |
| 20260504210017 | 68 | 90 | 3.0 | 8.0 | 0.00 | 0.00 | 0.00 | 21 | 1012.3 |
| 20260504205016 | 67 | 90 | 4.0 | 9.0 | 0.00 | 0.00 | 0.00 | 23 | 1012.1 |
| 20260504204017 | 65 | 315 | 4.0 | 9.0 | 0.00 | 0.00 | 0.00 | 24 | 1012.0 |
| 20260504203037 | 65 | 0 | 5.0 | 13.0 | 0.00 | 0.00 | 0.00 | 24 | 1012.3 |
| 20260504202016 | 64 | 0 | 7.0 | 14.0 | 0.00 | 0.00 | 0.00 | 26 | 1012.1 |
| 20260504201016 | 63 | 338 | 9.0 | 14.0 | 0.00 | 0.00 | 0.00 | 27 | 1012.4 |
| 20260504200016 | 62 | 338 | 7.0 | 13.0 | 0.00 | 0.00 | 0.00 | 27 | 1012.5 |
| 20260504195016 | 62 | 0 | 7.0 | 14.0 | 0.00 | 0.00 | 0.00 | 27 | 1011.8 |
| 20260504194016 | 62 | 45 | 8.0 | 16.0 | 0.00 | 0.00 | 0.00 | 28 | 1012.1 |
| 20260504193017 | 61 | 0 | 7.0 | 12.0 | 0.00 | 0.00 | 0.00 | 28 | 1012.0 |
| 20260504192036 | 61 | 0 | 10.0 | 15.0 | 0.00 | 0.00 | 0.00 | 29 | 1012.2 |
| 20260504191016 | 60 | 158 | 3.0 | 10.0 | 0.00 | 0.00 | 0.00 | 29 | 1012.8 |
| 20260504190017 | 60 | 158 | 9.0 | 18.0 | 0.00 | 0.00 | 0.00 | 31 | 1012.8 |
| 20260504185017 | 62 | 158 | 16.0 | 32.0 | 0.00 | 0.00 | 0.00 | 26 | 1012.9 |
| 20260504184016 | 64 | 158 | 9.0 | 26.0 | 0.00 | 0.00 | 0.00 | 28 | 1013.0 |
| 20260504183016 | 66 | 135 | 9.0 | 17.0 | 0.00 | 0.00 | 0.00 | 18 | 1013.1 |
| 20260504182017 | 67 | 113 | 4.0 | 9.0 | 0.00 | 0.00 | 0.00 | 19 | 1013.0 |
| 20260504181016 | 67 | 90 | 6.0 | 12.0 | 0.00 | 0.00 | 0.00 | 18 | 1013.3 |
| 20260504180016 | 68 | 338 | 3.0 | 10.0 | 0.00 | 0.00 | 0.00 | 16 | 1013.6 |
| 20260504175016 | 69 | 45 | 6.0 | 12.0 | 0.00 | 0.00 | 0.00 | 16 | 1013.7 |
| 20260504174016 | 69 | 45 | 3.0 | 8.0 | 0.00 | 0.00 | 0.00 | 16 | 1013.8 |
| 20260504173016 | 69 | 135 | 4.0 | 10.0 | 0.00 | 0.00 | 0.00 | 15 | 1014.1 |
| 20260504172017 | 68 | 248 | 4.0 | 7.0 | 0.00 | 0.00 | 0.00 | 16 | 1013.8 |
| 20260504171016 | 68 | 248 | 4.0 | 9.0 | 0.00 | 0.00 | 0.00 | 17 | 1014.3 |
| 20260504151016 | 64 | 0 | 8.0 | 14.0 | 0.00 | 0.00 | 0.00 | 19 | 1014.9 |
| 20260504141016 | 59 | 0 | 9.0 | 14.0 | 0.00 | 0.00 | 0.00 | 21 | 1014.3 |
| 20260504081016 | 53 | 161 | 0.0 | 0.0 | 0.00 | 0.00 | 0.00 | 27 | 1015.5 |
| 20260504050015 | 60 | 293 | 4.0 | 7.0 | 0.00 | 0.00 | 0.00 | 22 | 1016.8 |
| 20260504045015 | 61 | 248 | 4.0 | 7.0 | 0.00 | 0.00 | 0.00 | 21 | 1016.8 |
| 20260504044015 | 62 | 0 | 5.0 | 9.0 | 0.00 | 0.00 | 0.00 | 20 | 1016.9 |
| 20260504043015 | 61 | 270 | 4.0 | 7.0 | 0.00 | 0.00 | 0.00 | 21 | 1017.0 |
| 20260504042035 | 61 | 293 | 6.0 | 9.0 | 0.00 | 0.00 | 0.00 | 21 | 1016.6 |
| 20260504041015 | 62 | 270 | 5.0 | 8.0 | 0.00 | 0.00 | 0.00 | 21 | 1017.2 |
| 20260504040015 | 62 | 270 | 4.0 | 8.0 | 0.00 | 0.00 | 0.00 | 22 | 1017.2 |
| 20260504035015 | 61 | 248 | 2.0 | 4.0 | 0.00 | 0.00 | 0.00 | 22 | 1017.3 |
| 20260504034015 | 62 | 248 | 3.0 | 7.0 | 0.00 | 0.00 | 0.00 | 22 | 1017.0 |
| 20260504033015 | 61 | 248 | 4.0 | 7.0 | 0.00 | 0.00 | 0.00 | 23 | 1016.6 |
| 20260504032015 | 61 | 248 | 3.0 | 5.0 | 0.00 | 0.00 | 0.00 | 23 | 1016.6 |
| 20260504031015 | 61 | 270 | 3.0 | 7.0 | 0.00 | 0.00 | 0.00 | 23 | 1016.6 |
| 20260504030015 | 62 | 293 | 1.0 | 3.0 | 0.00 | 0.00 | 0.00 | 22 | 1016.9 |
| 20260504025015 | 62 | 0.0 | 1.0 | 0.00 | 0.00 | 0.00 | 22 | 1016.9 | |
| 20260504024015 | 63 | 293 | 6.0 | 10.0 | 0.00 | 0.00 | 0.00 | 21 | 1016.9 |
| 20260504023015 | 62 | 270 | 4.0 | 7.0 | 0.00 | 0.00 | 0.00 | 22 | 1016.5 |